Time,TemperatureF,DewpointF,PressureIn,WindDirection,WindDirectionDegrees,WindSpeedMPH,WindSpeedGustMPH,Humidity,HourlyPrecipIn,Conditions,Clouds,dailyrainin,SoftwareType,DateUTC
2013-03-10 00:02:00,16.7,11.0,30.19,SSE,168,0.0,-999.0,77,-99.99,,,0.02,weatherlink.com 1.10,2013-03-10 07:02:00,
2013-03-10 00:17:00,16.2,10.0,30.18,SE,146,0.0,-999.0,77,-99.99,,,0.00,weatherlink.com 1.10,2013-03-10 07:17:00,
2013-03-10 00:35:00,15.7,10.0,30.18,SSE,167,0.0,-999.0,77,-99.99,,,0.00,weatherlink.com 1.10,2013-03-10 07:35:00,
2013-03-10 00:48:00,15.6,9.0,30.18,SSE,167,0.0,-999.0,75,-99.99,,,0.00,weatherlink.com 1.10,2013-03-10 07:48:00,
2013-03-10 01:04:00,14.1,8.0,30.21,SSE,167,0.0,-999.0,76,-99.99,,,0.00,weatherlink.com 1.10,2013-03-10 08:04:00,
2013-03-10 01:19:00,13.5,8.0,30.23,SSE,167,0.0,-999.0,78,-99.99,,,0.00,weatherlink.com 1.10,2013-03-10 08:19:00,
2013-03-10 01:34:00,13.3,7.0,30.24,SSE,167,0.0,-999.0,77,-99.99,,,0.00,weatherlink.com 1.10,2013-03-10 08:34:00,
2013-03-10 01:49:00,13.3,7.0,30.24,SSE,167,0.0,-999.0,77,-99.99,,,0.00,weatherlink.com 1.10,2013-03-10 08:49:00,
2013-03-10 03:04:00,13.1,7.0,30.25,SSE,167,0.0,-999.0,77,-99.99,,,0.00,weatherlink.com 1.10,2013-03-10 09:04:00,
2013-03-10 03:19:00,13.1,7.0,30.25,SSE,167,0.0,-999.0,77,-99.99,,,0.00,weatherlink.com 1.10,2013-03-10 09:19:00,
2013-03-10 03:34:00,13.3,7.0,30.25,SSE,167,0.0,-999.0,77,-99.99,,,0.00,weatherlink.com 1.10,2013-03-10 09:34:00,
2013-03-10 03:50:00,12.3,7.0,30.27,SSE,167,0.0,-999.0,78,-99.99,,,0.00,weatherlink.com 1.10,2013-03-10 09:50:00,
2013-03-10 04:05:00,12.6,6.0,30.25,SSE,167,0.0,-999.0,76,-99.99,,,0.00,weatherlink.com 1.10,2013-03-10 10:05:00,
2013-03-10 04:21:00,11.9,6.0,30.27,SSE,167,0.0,-999.0,77,-99.99,,,0.00,weatherlink.com 1.10,2013-03-10 10:21:00,
2013-03-10 04:35:00,11.2,5.0,30.27,South,172,0.0,-999.0,77,-99.99,,,0.00,weatherlink.com 1.10,2013-03-10 10:35:00,
2013-03-10 04:51:00,10.4,5.0,30.30,South,172,0.0,-999.0,78,-99.99,,,0.00,weatherlink.com 1.10,2013-03-10 10:51:00,
2013-03-10 05:06:00,10.0,4.0,30.30,South,172,0.0,-999.0,78,-99.99,,,0.00,weatherlink.com 1.10,2013-03-10 11:06:00,
2013-03-10 05:21:00,9.9,4.0,30.31,South,172,0.0,-999.0,78,-99.99,,,0.00,weatherlink.com 1.10,2013-03-10 11:21:00,
2013-03-10 05:36:00,9.3,4.0,30.31,South,172,0.0,-999.0,78,-99.99,,,0.00,weatherlink.com 1.10,2013-03-10 11:36:00,
2013-03-10 05:52:00,9.0,3.0,30.32,South,172,0.0,-999.0,78,-99.99,,,0.00,weatherlink.com 1.10,2013-03-10 11:52:00,
2013-03-10 06:07:00,8.4,3.0,30.33,South,172,0.0,-999.0,79,-99.99,,,0.00,weatherlink.com 1.10,2013-03-10 12:07:00,
2013-03-10 06:22:00,8.3,3.0,30.36,South,172,0.0,-999.0,79,-99.99,,,0.00,weatherlink.com 1.10,2013-03-10 12:22:00,
2013-03-10 06:37:00,7.7,2.0,30.36,South,173,0.0,-999.0,77,-99.99,,,0.00,weatherlink.com 1.10,2013-03-10 12:37:00,
2013-03-10 06:52:00,7.6,2.0,30.36,South,172,0.0,-999.0,79,-99.99,,,0.00,weatherlink.com 1.10,2013-03-10 12:52:00,
2013-03-10 07:08:00,6.5,1.0,30.39,South,173,0.0,-999.0,77,-99.99,,,0.00,weatherlink.com 1.10,2013-03-10 13:08:00,
2013-03-10 07:24:00,6.5,1.0,30.41,South,173,0.0,-999.0,79,-99.99,,,0.00,weatherlink.com 1.10,2013-03-10 13:24:00,
2013-03-10 07:39:00,6.7,2.0,30.42,South,173,0.0,-999.0,79,-99.99,,,0.00,weatherlink.com 1.10,2013-03-10 13:39:00,
2013-03-10 07:54:00,6.5,1.0,30.40,South,172,0.0,-999.0,78,-99.99,,,0.00,weatherlink.com 1.10,2013-03-10 13:54:00,
2013-03-10 08:09:00,7.6,2.0,30.41,South,172,0.0,-999.0,77,-99.99,,,0.00,weatherlink.com 1.10,2013-03-10 14:09:00,
2013-03-10 08:24:00,7.6,1.0,30.41,South,173,0.0,-999.0,75,-99.99,,,0.00,weatherlink.com 1.10,2013-03-10 14:24:00,
2013-03-10 08:39:00,7.4,1.0,30.42,South,172,0.0,-999.0,75,-99.99,,,0.00,weatherlink.com 1.10,2013-03-10 14:39:00,
2013-03-10 08:54:00,9.2,3.0,30.42,South,172,0.0,-999.0,75,-99.99,,,0.00,weatherlink.com 1.10,2013-03-10 14:54:00,
2013-03-10 09:09:00,10.9,3.0,30.40,South,172,0.0,-999.0,71,-99.99,,,0.00,weatherlink.com 1.10,2013-03-10 15:09:00,
2013-03-10 09:25:00,12.9,4.0,30.38,South,172,0.0,-999.0,68,-99.99,,,0.00,weatherlink.com 1.10,2013-03-10 15:25:00,
2013-03-10 09:40:00,14.6,5.0,30.36,South,172,0.0,-999.0,66,-99.99,,,0.00,weatherlink.com 1.10,2013-03-10 15:40:00,
2013-03-10 09:55:00,16.4,6.0,30.34,South,173,0.0,-999.0,63,-99.99,,,0.00,weatherlink.com 1.10,2013-03-10 15:55:00,
2013-03-10 10:10:00,18.0,8.0,30.32,SW,229,0.0,-999.0,64,-99.99,,,0.00,weatherlink.com 1.10,2013-03-10 16:10:00,
2013-03-10 10:56:00,23.8,6.0,30.30,SW,229,0.0,-999.0,46,-99.99,,,0.00,weatherlink.com 1.10,2013-03-10 16:56:00,
2013-03-10 11:27:00,28.7,5.0,30.26,NNE,32,0.0,-999.0,36,-99.99,,,0.00,weatherlink.com 1.10,2013-03-10 17:27:00,
2013-03-10 11:42:00,29.0,2.0,30.25,NW,309,2.0,-999.0,32,-99.99,,,0.00,weatherlink.com 1.10,2013-03-10 17:42:00,
2013-03-10 11:57:00,31.9,3.0,30.23,SSE,148,1.0,-999.0,29,-99.99,,,0.00,weatherlink.com 1.10,2013-03-10 17:57:00,
2013-03-10 12:14:00,32.9,3.0,30.22,NW,306,0.0,-999.0,28,-99.99,,,0.00,weatherlink.com 1.10,2013-03-10 18:14:00,
2013-03-10 12:29:00,34.1,3.0,30.21,NE,45,3.0,-999.0,27,-99.99,,,0.00,weatherlink.com 1.10,2013-03-10 18:29:00,
2013-03-10 12:44:00,35.2,9.0,30.20,NE,35,2.0,-999.0,34,-99.99,,,0.00,weatherlink.com 1.10,2013-03-10 18:44:00,
2013-03-10 12:59:00,35.8,8.0,30.18,WNW,297,0.0,-999.0,31,-99.99,,,0.00,weatherlink.com 1.10,2013-03-10 18:59:00,
2013-03-10 13:14:00,37.2,4.0,30.18,North,5,0.0,-999.0,25,-99.99,,,0.00,weatherlink.com 1.10,2013-03-10 19:14:00,
2013-03-10 13:29:00,37.3,7.0,30.20,WNW,293,0.0,-999.0,28,-99.99,,,0.00,weatherlink.com 1.10,2013-03-10 19:29:00,
2013-03-10 13:44:00,38.2,5.0,30.19,ENE,65,2.0,-999.0,25,-99.99,,,0.00,weatherlink.com 1.10,2013-03-10 19:44:00,
2013-03-10 13:59:00,38.3,6.0,30.18,NE,34,0.0,-999.0,26,-99.99,,,0.00,weatherlink.com 1.10,2013-03-10 19:59:00,
2013-03-10 14:14:00,39.5,7.0,30.18,NE,51,4.0,-999.0,26,-99.99,,,0.00,weatherlink.com 1.10,2013-03-10 20:14:00,
2013-03-10 14:30:00,38.8,7.0,30.18,NE,43,0.0,-999.0,27,-99.99,,,0.00,weatherlink.com 1.10,2013-03-10 20:30:00,
2013-03-10 14:45:00,39.6,6.0,30.18,NNW,331,0.0,-999.0,25,-99.99,,,0.00,weatherlink.com 1.10,2013-03-10 20:45:00,
2013-03-10 15:00:00,39.1,6.0,30.18,NNE,17,1.0,-999.0,25,-99.99,,,0.00,weatherlink.com 1.10,2013-03-10 21:00:00,
2013-03-10 15:15:00,39.2,11.0,30.16,WNW,284,2.0,-999.0,32,-99.99,,,0.00,weatherlink.com 1.10,2013-03-10 21:15:00,
2013-03-10 15:30:00,38.9,4.0,30.18,West,264,0.0,-999.0,23,-99.99,,,0.00,weatherlink.com 1.10,2013-03-10 21:30:00,
2013-03-10 15:46:00,39.2,8.0,30.16,West,281,4.0,-999.0,27,-99.99,,,0.00,weatherlink.com 1.10,2013-03-10 21:46:00,
2013-03-10 16:02:00,39.2,4.0,30.17,West,263,4.0,-999.0,23,-99.99,,,0.00,weatherlink.com 1.10,2013-03-10 22:02:00,
2013-03-10 16:17:00,40.3,4.0,30.17,NNE,23,0.0,-999.0,22,-99.99,,,0.00,weatherlink.com 1.10,2013-03-10 22:17:00,
2013-03-10 16:31:00,40.8,10.0,30.19,WNW,286,1.0,-999.0,28,-99.99,,,0.00,weatherlink.com 1.10,2013-03-10 22:31:00,
2013-03-10 16:46:00,41.3,9.0,30.19,WNW,294,2.0,-999.0,27,-99.99,,,0.00,weatherlink.com 1.10,2013-03-10 22:46:00,
2013-03-10 17:03:00,42.1,10.0,30.17,WNW,298,0.0,-999.0,27,-99.99,,,0.00,weatherlink.com 1.10,2013-03-10 23:03:00,
2013-03-10 17:17:00,41.6,8.0,30.20,NW,320,1.0,-999.0,25,-99.99,,,0.00,weatherlink.com 1.10,2013-03-10 23:17:00,
2013-03-10 17:32:00,42.3,12.0,30.20,NNW,346,0.0,-999.0,29,-99.99,,,0.00,weatherlink.com 1.10,2013-03-10 23:32:00,
2013-03-10 17:47:00,41.6,11.0,30.21,NE,42,0.0,-999.0,28,-99.99,,,0.00,weatherlink.com 1.10,2013-03-10 23:47:00,
2013-03-10 18:04:00,40.9,6.0,30.24,WNW,299,0.0,-999.0,23,-99.99,,,0.00,weatherlink.com 1.10,2013-03-11 00:04:00,
2013-03-10 18:19:00,39.9,5.0,30.26,NW,319,0.0,-999.0,23,-99.99,,,0.00,weatherlink.com 1.10,2013-03-11 00:19:00,
2013-03-10 18:34:00,38.5,5.0,30.27,NE,46,0.0,-999.0,25,-99.99,,,0.00,weatherlink.com 1.10,2013-03-11 00:34:00,
2013-03-10 18:49:00,36.9,5.0,30.30,NE,48,0.0,-999.0,26,-99.99,,,0.00,weatherlink.com 1.10,2013-03-11 00:49:00,
2013-03-10 19:04:00,35.2,4.0,30.32,NE,49,0.0,-999.0,27,-99.99,,,0.00,weatherlink.com 1.10,2013-03-11 01:04:00,
2013-03-10 19:19:00,33.4,7.0,30.35,NE,49,0.0,-999.0,33,-99.99,,,0.00,weatherlink.com 1.10,2013-03-11 01:19:00,
2013-03-10 19:34:00,31.2,8.0,30.38,NE,49,0.0,-999.0,37,-99.99,,,0.00,weatherlink.com 1.10,2013-03-11 01:34:00,
2013-03-10 19:49:00,29.3,8.0,30.42,NE,49,0.0,-999.0,41,-99.99,,,0.00,weatherlink.com 1.10,2013-03-11 01:49:00,
2013-03-10 20:04:00,28.7,10.0,30.42,NE,51,0.0,-999.0,46,-99.99,,,0.00,weatherlink.com 1.10,2013-03-11 02:04:00,
2013-03-10 20:20:00,28.1,9.0,30.41,NE,51,0.0,-999.0,45,-99.99,,,0.00,weatherlink.com 1.10,2013-03-11 02:20:00,
2013-03-10 20:35:00,27.0,9.0,30.44,NE,51,0.0,-999.0,47,-99.99,,,0.00,weatherlink.com 1.10,2013-03-11 02:35:00,
2013-03-10 20:50:00,26.4,10.0,30.45,NE,51,0.0,-999.0,51,-99.99,,,0.00,weatherlink.com 1.10,2013-03-11 02:50:00,
2013-03-10 21:05:00,25.8,11.0,30.46,NE,51,0.0,-999.0,53,-99.99,,,0.00,weatherlink.com 1.10,2013-03-11 03:05:00,
2013-03-10 21:20:00,25.6,11.0,30.40,ESE,123,0.0,-999.0,54,-99.99,,,0.00,weatherlink.com 1.10,2013-03-11 03:20:00,
2013-03-10 21:36:00,25.0,12.0,30.38,South,180,0.0,-999.0,58,-99.99,,,0.00,weatherlink.com 1.10,2013-03-11 03:36:00,
2013-03-10 21:52:00,24.2,11.0,30.39,South,180,0.0,-999.0,58,-99.99,,,0.00,weatherlink.com 1.10,2013-03-11 03:52:00,
2013-03-10 22:06:00,23.5,11.0,30.42,South,180,0.0,-999.0,59,-99.99,,,0.00,weatherlink.com 1.10,2013-03-11 04:06:00,
2013-03-10 22:21:00,23.3,12.0,30.34,SSW,198,0.0,-999.0,61,-99.99,,,0.00,weatherlink.com 1.10,2013-03-11 04:21:00,
2013-03-10 22:36:00,22.9,11.0,30.35,SSE,166,0.0,-999.0,60,-99.99,,,0.00,weatherlink.com 1.10,2013-03-11 04:36:00,
2013-03-10 22:52:00,21.9,10.0,30.38,SSE,153,0.0,-999.0,60,-99.99,,,0.00,weatherlink.com 1.10,2013-03-11 04:52:00,
2013-03-10 23:07:00,21.3,10.0,30.38,South,178,0.0,-999.0,61,-99.99,,,0.00,weatherlink.com 1.10,2013-03-11 05:07:00,
2013-03-10 23:22:00,20.6,10.0,30.32,South,173,0.0,-999.0,63,-99.99,,,0.00,weatherlink.com 1.10,2013-03-11 05:22:00,
2013-03-10 23:37:00,19.7,9.0,30.33,South,175,0.0,-999.0,63,-99.99,,,0.00,weatherlink.com 1.10,2013-03-11 05:37:00,
2013-03-10 23:54:00,19.5,9.0,30.34,South,180,0.0,-999.0,64,-99.99,,,0.00,weatherlink.com 1.10,2013-03-11 05:54:00,